Location: Prague
(50.0830°N, 14.4670°E)
Time: 14:01:07
(UTC+01:00)

XW-2F - Pass Details

Date: 03 December 2021
Orbit: 494 x 515 km, 97.5° (Epoch: 27 January)

Event Time Altitude Azimuth Distance (km) Brightness Sun altitude
Rises 17:29:35 0° 174° (S) 2,598 ? -13.4°
Reaches altitude 10° 17:31:40 10° 178° (S) 1,722 ? -13.7°
Maximum altitude 17:35:20 60° 259° (WSW) 589 ? -14.3°
Drops below altitude 10° 17:39:05 10° 340° (NNW) 1,751 ? -14.8°
Sets 17:41:13 0° 344° (NNW) 2,646 ? -15.2°
